Simultaneous Nadir Overpasses (SNOs) Predictions

Prediction of SNOs between AQUA and METOP-B Satellite Orbit:

Table of predicted SNOs for the next 14.0 days since TLE Epoch: 1/5/2019
Index Date (AQUA) Time (AQUA) Lat,Lon (AQUA) SZA (AQUA ) Date (METOP-B) Time (METOP-B) Lat,Lon (METOP-B) SZA (METOP-B ) Distance(km) Time Diff (sec)
1 01/07/2019 22:06:19 73.61,-156.92 95.95 01/07/2019 22:05:08 73.53,-158.04 95.92 36.29 71
2 01/07/2019 22:55:49 -73.87, 10.15 83.78 01/07/2019 22:55:43 -73.89, 10.12 83.77 1.71 6
3 01/07/2019 23:45:19 73.97, 177.56 96.32 01/07/2019 23:46:21 73.96, 177.64 96.30 2.65 62
4 01/10/2019 17:40:38 73.80, -90.89 95.76 01/10/2019 17:39:27 73.81, -90.98 95.79 3.03 71
5 01/10/2019 18:30:05 -73.90, 76.54 84.14 01/10/2019 18:30:07 -73.92, 76.61 84.12 3.18 2
6 01/10/2019 19:19:34 73.95,-115.95 95.91 01/10/2019 19:20:46 73.94,-116.00 95.90 1.91 72
7 01/13/2019 13:14:54 73.84, -24.52 95.36 01/13/2019 13:13:51 73.84, -24.50 95.37 0.99 63
8 01/13/2019 14:04:20 -73.88, 143.02 84.61 01/13/2019 14:04:32 -73.90, 142.98 84.58 3.12 12
9 01/13/2019 14:53:55 74.25, -50.18 95.79 01/13/2019 14:55:05 74.22, -48.91 95.70 38.51 70
10 01/16/2019 08:49:08 73.82, 41.94 94.84 01/16/2019 08:48:15 73.82, 41.85 94.85 2.93 53
11 01/16/2019 09:38:35 -73.91,-150.61 85.07 01/16/2019 09:38:55 -73.93,-150.54 85.05 3.16 20
12 01/16/2019 10:28:16 74.59, 15.43 95.67 01/16/2019 10:29:21 74.59, 18.46 95.54 89.55 65
13 01/19/2019 04:23:24 73.87, 108.29 94.34 01/19/2019 04:22:39 73.84, 108.32 94.32 2.64 45




NCC Satellite Simultaneous Nadir Overpasses (SNOs) Prediction Service
